Location: Ardick
(31.4613°N, 81.4334°W)
Time: 12:34:38
(UTC+00:00)

Tiangong - Visible Passes

Search period start: 21 September 2021 00:00
Search period end: 01 October 2021 00:00
Orbit: 380 x 385 km, 41.5° (Epoch: 20 September)

Date Brightness Start Highest point End Pass type
(mag) Time Alt. Az. Time Alt. Az. Time Alt. Az.
23 Sep 3.5 09:53:58 13° S 09:55:36 18° SE 09:57:54 10° E visible
24 Sep 1.1 10:29:22 14° WSW 10:32:00 83° SSE 10:35:10 10° ENE visible
25 Sep 2.6 09:32:27 34° ESE 09:32:27 34° ESE 09:34:50 10° ENE visible
26 Sep 1.4 10:07:38 37° WNW 10:08:26 49° NNW 10:11:32 10° NE visible
27 Sep 4.0 09:10:32 17° ENE 09:10:32 17° ENE 09:11:24 10° ENE visible
27 Sep 2.9 10:42:52 10° WNW 10:45:19 20° NNW 10:47:46 10° NE visible
28 Sep 2.6 09:45:35 27° N 09:45:35 27° N 09:47:49 10° NE visible
29 Sep 3.3 10:20:34 12° NW 10:22:01 16° N 10:24:03 10° NNE visible
30 Sep 3.9 09:23:21 14° NNE 09:23:21 14° NNE 09:24:05 10° NE visible
